Regional Weather Roundup
Issued by NWS

Home | Current Version | Previous Version | Text Only | Print | Product List | Glossary On
Versions: 1 2 3 4 5 6 7 8 9 10 11 12 13 14 15 16 17 18 19 20 21 22 23 24 25 26 27 28 29 30 31 32 33 34 35 36 37 38 39 40 41 42 43 44 45 46 47 48 49 50
000
ASUS45 KBOU 260007
RWRCO

WEATHER ROUNDUP FOR COLORADO
NATIONAL WEATHER SERVICE DENVER/BOULDER CO
600 PM MDT TUE JUL 25 2017

NOTE: "FAIR" INDICATES FEW OR NO CLOUDS BELOW 12000 FEET WITH NO
SIGNIFICANT WEATHER AND/OR OBSTRUCTIONS TO VISIBILITY.

COZ001>005-013-030-031-260100-
...NORTHWEST COLORADO...

CITY           SKY/WX    TMP DP  RH WIND       PRES   REMARKS
CRAIG          FAIR      70  58  65 N7        30.22F
HAYDEN         FAIR      66  55  68 E3        30.25F
MEEKER         FAIR      73  61  65 N3        30.21F
RABBIT EARS PA NOT AVBL
STEAMBOAT SPGS FAIR      69  54  57 NW6       30.26F
WALDEN         CLOUDY    61  54  77 N9        30.37S
$$

COZ006>008-011-260100-
...WEST CENTRAL VALLEYS...

CITY           SKY/WX    TMP DP  RH WIND       PRES   REMARKS
GRAND JUNCTION FAIR      77  64  64 W6        30.12F
MONTROSE       LGT RAIN  66  63  90 SE10      30.24R
EAGLE          LGT RAIN  70  57  64 SW7       30.25F
RIFLE          PTSUNNY   76  60  57 W15       30.15F
DELTA          FAIR      71  65  83 E10       30.18R THUNDER
NUCLA          NOT AVBL
$$

COZ017>023-064>068-260100-
...SOUTHWEST COLORADO...

CITY           SKY/WX    TMP DP  RH WIND       PRES   REMARKS
DURANGO        FAIR      77  51  40 NW10      30.23F
CORTEZ         FAIR      80  60  50 CALM      30.18S
PAGOSA SPRINGS PTSUNNY   78  46  32 W9G21     30.31R
TELLURIDE      CLOUDY    59  56  89 SE6       30.47R
WOLF CREEK PAS PTSUNNY   55  48  76 SW13G23   30.68S
$$

COZ009-010-012-014-032>034-037-058>063-260100-
...CENTRAL COLORADO...

CITY           SKY/WX    TMP DP  RH WIND       PRES   REMARKS
ASPEN          FAIR      68  57  68 N7        30.32S
BUENA VISTA    LGT RAIN  64  56  77 S5        30.34F
COPPER MTN     CLOUDY    59  50  72 W9        30.64F
BERTHOUD PASS  HAZE      46  32  57 NE5       30.69S THUNDER VSB<1/4
COTTONWOOD PAS CLOUDY    63  52  67 SW5       30.49S
GUNNISON       FAIR      70  55  59 SW5       30.32R
KREMMLING      PTSUNNY   79  52  38 SW10      30.29S
LEADVILLE      NOT AVBL
MONARCH PASS   FAIR      52  46  82 W7        30.73F
SALIDA         CLOUDY    64  61  88 SE7       30.38S
SUNLIGHT       TSTM      52  52 100 W3        30.56F
WILKERSON PASS PTSUNNY   61  41  48 W5        30.62S
$$

COZ069>075-260100-
...SAN LUIS VALLEY/SANGRE DE CRISTO MOUNTAINS...

CITY           SKY/WX    TMP DP  RH WIND       PRES   REMARKS
ALAMOSA        PTSUNNY   77  58  51 S16       30.26F
DEL NORTE      CLOUDY    73  53  49 SE10      30.30S
LA VETA PASS   NOT AVBL
SAGUACHE         N/A    N/A N/A N/A MISG        N/A
$$

COZ035-036-038>040-260100-
...NORTHERN COLORADO FRONT RANGE...

CITY           SKY/WX    TMP DP  RH WIND       PRES   REMARKS
DENVER INTL AP LGT RAIN  71  60  68 W12       30.16R
DMNS CITY PARK   N/A     69  62  76 N1G10     30.15S
AURORA         LGT RAIN  70  62  76 W14       30.18R
FRONT RANGE AP LGT RAIN  70  63  78 NW10      30.16R
ERIE MUNI ARPT PTSUNNY   70  63  78 S13       30.15R
BOULDER MUN AP CLOUDY    72  57  60 SW9       30.15R
CENTENNIAL     TSTM      69  62  78 W13       30.18R
BROOMFIELD     RAIN      68  61  77 NW7       30.19R
FORT COLLINS   CLOUDY    80  56  43 NW14      30.13R
LONGMONT       CLOUDY    78  58  49 SW8       30.15R
$$

COZ041-046-047-076>085-087-088-260100-
...PIKES PEAK/PALMER DIVIDE AND SOUTHERN FOOTHILLS...

CITY           SKY/WX    TMP DP  RH WIND       PRES   REMARKS
COLO. SPRINGS  PTSUNNY   84  57  39 N14       30.14R
A. F. ACADEMY  PTSUNNY   73  57  58 N16G22    30.19R
SCHRIEVER AFB  PTSUNNY   85  49  28 W7        30.14S
CHEYENNE MTN   PTSUNNY   77  54  44 N12G17    30.15S THUNDER
ELLICOTT       FAIR       1 N/A N/A NE8       30.12S WCI -13
FALCON           N/A     78  55  44 N14G20    30.22R
FORT CARSON    PTSUNNY   81  55  41 SW13G20   30.13R
LIMON          TSTM      70  60  70 NE14      30.09R
MONUMENT HILL  FAIR      68  57  68 NW12G17   30.27R
CANON CITY     PTSUNNY   73  66  78 CALM      30.09R
WALSENBURG     FAIR      81  61  50 SW6       30.14F
TRINIDAD       FAIR      78  57  48 W16       30.11F
$$

COZ042>045-048>051-090-091-260100-
...NORTHEAST COLORADO...

CITY           SKY/WX    TMP DP  RH WIND       PRES   REMARKS
GREELEY ARPT   LGT RAIN  77  60  55 W13       30.09R
AKRON          FAIR      91  43  18 NW20G25   29.99S
BURLINGTON     FAIR      95  55  26 SW10      29.97R
WRAY           NOT AVBL
YUMA           FAIR      90  54  29 S8        29.93S
STERLING       FAIR      93  54  26 W7        29.92S
HOLYOKE        FAIR      90  55  31 NW8       29.91F
FORT MORGAN    PTSUNNY   87  47  25 S14G22    30.02R
$$

COZ086-089-092>099-260100-
...SOUTHEAST COLORADO...

CITY           SKY/WX    TMP DP  RH WIND       PRES   REMARKS
PUEBLO         TSTM      77  60  55 W12       30.02F
LA JUNTA       FAIR      98  51  20 S7        29.94S
LAMAR          TSTM      79  64  60 N10       29.92S
SPRINGFIELD      N/A     92  56  29 S21G30    30.01R
$$



USA.gov is the U.S. government's official web portal to all federal, state and local government web resources and services.